Location: *
(23.5860°S, 65.4036°W)
Time: 13:32:32
(UTC+00:00)

Cosmos 841 Rocket - Pass Details

Date: 25 August 2019
Orbit: 747 x 772 km, 74.0° (Epoch: 16 September)

Event Time Altitude Azimuth Distance (km) Brightness Sun altitude
Rises 22:27:29 0° 348° (NNW) 3,226 7.0 -5.1°
Reaches altitude 10° 22:29:50 10° 348° (NNW) 2,308 6.3 -5.6°
Maximum altitude 22:35:06 86° 77° (ENE) 783 3.5 -6.8°
Drops below altitude 10° 22:40:25 10° 164° (SSE) 2,335 5.8 -8.0°
Sets 22:42:48 0° 164° (SSE) 3,266 6.5 -8.6°
